Reflectivity
-20 -20 -20 -20 -20 -20 -20 -20 -20 -20 -15 -15 -20 -20 -19 -18 -20 -20 -13 -20 -20 -20 -20 -20 -20 -19 21 -20 -20 -20 -20 -20 -20 -20 -20 -20 -3 3 8 -20 -20 -20 -20 -20 -20 -20 -20 -20 -20
-20 -20 -20 -20 -20 -20 -20 -20 -20 -20 -20 -5 -17 -20 -12 -3 -13 -20 -4 -1 -20 -10 -15 -20 -5 -20 -20 -5 -20 -20 -20 -20 -20 -20 -13 -20 -13 -2 24 -20 -20 -20 -20 -20 -20 -20 -20 -20 -20
-20 -20 -20 -20 -20 -20 -20 -20 -20 -20 -20 -20 -5 -20 -20 -20 -11 -20 -20 -20 5 -19 -13 -20 14 -20 -11 -20 -20 -20 -20 -20 -20 7 -18 -20 -19 -5 12 7 -20 -20 -20 -20 -20 -20 -20 -20 -20
-20 -20 -20 -20 -20 -20 -20 -20 -20 -20 -20 -20 -20 -7 -20 -20 -20 -20 -20 -20 14 6 -20 -19 -20 28 -20 -20 8 -20 -20 -20 -20 5 -19 -14 7 8 -19 32 -20 -20 -20 -20 -20 -20 -20 -20 -20
-20 -20 -20 -20 -20 -20 -20 -20 -20 -20 -20 -20 -20 -20 -6 -2 -6 -20 -17 -15 5 25 -3 1 -5 25 -6 9 7 -15 -20 -4 -19 -8 1 2 14 4 -20 18 -2 -20 -20 -20 -20 -20 -20 -20 -20
-20 -20 -20 -20 -20 -20 -20 -20 -20 -20 -20 -20 -16 -20 -20 -20 -18 -16 5 6 15 16 4 11 25 6 16 23 15 16 7 25 -1 -2 12 -12 -0 5 1 7 16 22 -20 -20 -20 -20 -20 -20 -20
-20 -20 -20 -20 -20 -20 -20 -20 -20 -20 -20 -20 -20 -20 -20 -20 -19 0 -17 4 -4 24 14 25 -14 3 -4 27 -13 -4 -16 7 -16 -2 11 -19 -1 7 16 7 -14 12 6 18 -20 -20 -20 -20 -20
-20 -20 -20 -20 -20 -20 -20 -20 -20 -20 -20 -20 -20 -20 -20 -20 -19 -8 -20 -20 -20 4 29 3 26 29 26 -16 -15 13 -11 -20 8 -19 -20 -20 -20 -20 -20 10 11 5 0 -9 -19 -20 -20 -20 -20
-20 -20 -20 -20 -20 -20 -20 -20 -20 -20 -20 -20 -20 -20 -20 -20 -18 4 -19 -13 -15 4 18 12 13 27 24 14 -1 14 27 22 9 -20 -20 -20 -20 -20 -20 -20 -10 0 -1 -12 -19 19 -20 -20 -20
-20 -20 -20 -20 -20 -20 -20 -20 -20 -20 -20 -20 -20 -20 -20 -20 -20 -9 -17 -10 -19 0 -9 16 16 20 15 45 28 23 20 20 11 2 -17 -20 -20 -20 -20 -20 -20 -20 -20 -20 -20 -20 -2 -20 -20
-20 -20 -20 -20 -20 -20 -20 -20 -20 -20 -20 -20 -20 -20 -20 -20 -20 -19 -18 -20 -14 -15 -3 1 -17 26 21 10 42 41 20 23 21 1 -20 -20 -20 -20 -20 -20 -20 -20 -20 -20 7 -18 -20 -20 -20
-20 -20 -20 -20 -20 -20 -20 -20 -20 -20 -20 -20 -20 -20 -20 -20 -20 -20 -20 -20 -20 -16 21 4 9 23 30 11 12 20 33 34 28 15 -5 10 -20 -17 -20 -8 -20 -20 -20 -20 -10 4 -20 -20 -20
-20 -20 -20 -20 -20 -20 -20 -20 -20 -20 -20 -20 -20 -20 -20 -20 -20 -20 -20 -20 -20 -20 -6 17 6 -1 25 27 13 26 37 25 37 37 -8 -2 -20 -6 2 8 -12 -20 -20 -20 -20 -20 -18 -15 -8
-20 -20 -20 -20 -20 -20 -20 -20 -20 -20 -20 -20 -20 -20 -20 -20 -20 -20 -20 -20 -20 -20 -20 -3 6 -13 3 18 24 33 29 34 30 34 24 22 21 -3 -12 8 15 -12 -17 -20 -20 -20 -20 -20 3
-20 -20 -20 -20 -20 -20 -20 -20 -20 -20 -20 -20 -20 -20 -20 -20 -20 -20 -20 -20 -20 -20 -20 -20 -19 -20 -7 9 13 8 30 30 31 34 29 42 31 25 18 -13 0 -13 2 -8 -16 -20 -20 -20 -20
-20 -20 -20 -20 -20 -20 -20 -20 -20 -20 -20 -20 -20 -20 -20 -20 -20 -20 -20 -20 -20 -20 -20 -20 -20 -18 -10 -11 3 17 6 24 33 30 22 26 26 38 28 18 -14 -14 -10 4 -20 -19 -20 -20 -12
-20 -20 -20 -20 -20 -20 -20 -20 -20 -20 -20 -20 -20 -20 -20 -20 -20 -20 -20 -20 -20 -20 -20 -20 -20 -20 -20 1 -19 8 15 8 16 33 28 24 32 32 32 16 -15 -12 -10 -4 8 -4 -20 -15 -12
-20 -20 -20 -20 -20 -20 -20 -20 -20 -20 -20 -20 -20 -20 -20 -20 -20 -20 -20 -20 -20 -20 -20 -20 -20 -20 -20 -19 -19 -11 15 18 9 32 34 18 18 29 31 16 -14 35 24 -11 19 11 -12 -15 -20
-20 -20 -20 -20 -20 -20 -20 -20 -20 -20 -20 -20 -20 -20 -20 -20 -20 -20 -20 -20 -20 -20 -20 -20 -20 -20 -20 -20 -20 -20 12 21 20 -2 32 32 27 24 29 27 5 37 1 12 36 21 10 14 12
-20 -20 -20 -20 -20 -20 -20 -20 -20 -20 -20 -20 -20 -20 -20 -20 -20 -20 -20 -20 -20 -20 -20 -20 -20 -20 -20 -20 -20 -20 -2 16 14 3 12 31 28 30 31 35 34 20 17 26 4 16 8 -10 -8
-20 -20 -20 -20 -20 -20 -20 -20 -20 -20 -20 -20 -20 -20 -20 -20 -20 -20 -20 -20 -20 -20 -20 -20 -20 -20 -20 -20 -20 -20 -10 2 16 15 15 12 37 33 21 23 21 1 -10 5 -20 11 -1 -20 -20
-20 -20 -20 -20 -20 -20 -20 -20 -20 -20 -20 -20 -20 -20 -20 -20 -20 -20 -20 -20 -20 -20 -20 -20 -20 -20 -20 -20 -20 -20 -20 -2 -5 9 13 12 20 15 32 23 6 -10 25 -20 -20 -9 -20 -20 -20
-20 -20 -20 -20 -4 5 -20 -20 -20 -20 -20 -20 -20 -20 -20 -20 -20 -20 -20 -20 -20 -20 -20 -20 -20 -20 -20 -20 -20 -20 -20 -20 -20 -6 -1 -8 11 16 22 -4 8 31 2 10 12 -10 -20 -20 -20
-20 -6 -17 -18 -20 -19 -20 -11 -20 -20 -20 -20 -20 -20 -20 -20 -20 -20 -20 -20 -20 -20 -20 -20 -20 -20 -20 -20 -20 -20 -20 -20 -20 -10 -20 -19 -5 -1 20 19 18 -19 -20 -20 -11 4 -9 -19 -20
-20 -20 -9 4 5 -20 -20 -20 -20 -20 -20 -20 -20 -20 -20 -20 -20 -20 -20 -20 -20 -20 -20 -20 -20 -20 -20 -20 -20 -20 -20 -20 -20 -20 -20 -20 -14 -4 -6 5 16 16 2 -17 -20 -20 -10 -7 -20
-6 -20 -20 -20 -20 -20 -20 1 -18 -18 -20 -20 -20 -20 -20 -20 -20 -20 -20 -20 -20 -20 -20 -20 -20 -20 -20 -20 -20 -20 -20 -20 -20 -20 -20 -20 -20 -14 -20 -20 -11 1 10 7 -15 -20 -20 -20 -20
-20 2 -6 -2 -16 -20 -6 -9 -15 -18 -20 -20 -20 -20 -20 -20 -20 -20 -20 -20 -20 -20 -20 -20 -20 -20 -20 -20 -20 -20 -20 -20 -20 -20 -20 -20 -20 -20 -20 -20 -20 -20 -12 -2 2 -15 -20 -20 -20
-11 -20 -4 14 9 -2 -20 -20 -20 -20 -20 -20 -20 -20 -20 -20 -20 -20 -20 -20 -20 -20 -20 -20 -20 -20 -20 -20 -20 -20 -20 -20 -20 -20 -20 -20 -20 -20 -20 -20 -20 -20 -20 -20 -20 -17 -18 -20 -20
-20 -13 -19 -20 3 -20 -20 -20 -20 -20 -20 -20 -20 -20 -20 -20 -20 -20 -20 -20 -20 -20 -20 -20 -20 -20 -20 -20 -20 -20 -20 -20 -20 -20 -20 -20 -20 -20 -20 -20 -20 -20 -20 -20 -20 -20 -20 -20 -20
-20 -20 -20 -20 -20 -20 -20 -20 -20 -20 -20 -20 -20 -20 -20 -20 -20 -20 -20 -20 -19 -20 -20 -20 -20 -20 -20 -20 -20 -20 -20 -20 -20 -20 -20 -20 -20 -20 -20 -20 -20 -20 -20 -20 -20 -20 -20 -20 -20
Wind_Speed
3 2 1 4 4 2 3 6 2 3 2 3 3 3 4 4 1 4 3 1 3 4 6 8 8 5 10 13 14 14 15 14 14 14 13 14 14 13 14 16 15 16 15 14 14 13 13 12 11
2 2 4 2 4 4 6 6 7 13 4 5 7 4 1 1 1 7 6 3 4 4 6 7 9 11 12 14 15 13 14 14 14 14 14 13 12 11 13 16 16 16 15 14 13 12 11 11 11
1 1 4 4 4 7 4 10 15 11 6 4 4 5 2 5 2 6 5 5 11 7 12 11 8 15 12 14 15 14 14 14 14 15 16 13 12 10 11 15 16 15 15 14 13 12 11 11 11
2 1 3 4 7 6 5 5 2 3 3 7 5 2 2 0 3 5 8 7 12 9 11 21 16 14 12 12 13 13 14 15 15 16 15 15 13 11 9 14 15 14 13 13 13 12 11 10 10
3 2 3 4 7 4 7 7 2 5 3 5 7 7 4 4 8 10 7 7 11 9 9 16 24 23 16 12 11 12 13 17 16 17 18 16 16 15 12 10 13 13 12 13 12 11 10 9 8
2 3 3 19 7 6 10 7 3 5 7 4 4 7 4 1 7 7 6 8 8 9 10 10 20 23 23 22 24 21 18 15 17 17 18 16 16 16 17 13 8 11 13 12 11 9 8 8 7
6 4 7 1 8 10 5 12 7 10 9 8 9 9 2 2 6 9 8 8 10 8 10 8 8 14 20 23 21 19 19 17 16 16 16 17 14 12 14 14 14 11 7 9 9 8 6 5 6
5 4 4 6 6 7 8 8 4 7 12 4 4 9 6 7 9 10 10 8 8 8 9 7 8 6 10 11 19 18 17 15 15 11 12 13 13 12 10 10 12 12 11 9 4 8 6 3 4
4 2 5 7 9 6 3 3 3 2 5 5 5 2 1 18 13 10 6 5 5 6 8 8 7 7 7 7 11 14 14 13 12 10 10 8 4 5 7 10 10 11 7 5 2 6 7 3 2
5 5 9 6 6 4 6 3 5 4 5 3 4 7 13 14 12 11 6 7 5 4 7 8 6 4 6 5 8 9 8 7 8 8 8 5 5 4 7 8 10 11 9 10 8 5 5 3 2
6 7 5 3 5 6 4 4 2 7 4 6 7 11 7 10 8 7 6 5 6 6 4 7 7 6 6 4 4 3 7 4 5 9 7 5 4 3 4 3 3 4 8 4 5 4 4 1 2
4 7 5 5 3 1 1 3 4 2 1 5 10 13 7 10 9 7 6 6 7 7 6 5 6 6 4 2 4 6 5 2 5 7 10 5 3 4 3 3 3 4 3 4 4 3 4 5 4
5 3 6 8 5 6 2 2 2 3 5 8 14 9 9 7 7 7 6 7 7 8 7 6 4 4 5 6 4 6 3 5 4 3 8 8 4 3 3 3 3 4 3 3 3 3 3 4 4
4 9 11 5 6 6 5 1 4 0 6 9 9 8 7 7 7 6 7 6 7 8 6 5 4 5 6 5 5 4 4 4 3 5 6 9 7 5 3 3 3 4 3 3 3 2 2 3 3
4 5 3 6 8 7 6 1 2 5 5 8 8 7 8 6 6 7 7 7 6 5 6 7 5 4 5 6 6 4 5 2 4 3 5 5 7 7 6 4 4 4 3 4 3 3 3 1 3
4 4 4 3 8 3 7 4 4 1 8 7 7 7 7 6 6 7 7 7 7 6 5 5 6 4 4 4 4 5 6 5 2 5 3 4 6 6 5 4 4 5 3 3 3 2 2 3 3
4 5 4 2 5 5 3 4 10 11 8 7 6 6 7 7 7 6 6 7 7 6 6 6 5 5 5 4 3 4 6 5 2 4 3 6 4 2 2 4 4 3 4 3 3 2 1 1 1
5 4 4 6 6 3 10 8 11 13 16 10 10 9 6 5 4 6 7 6 7 7 7 6 4 5 5 4 4 3 4 4 4 2 3 4 2 5 4 4 2 5 2 2 4 4 3 1 2
4 3 5 1 1 7 10 10 10 9 13 13 11 11 10 7 5 5 5 6 7 6 6 5 6 4 3 2 4 2 3 3 2 3 4 5 4 4 6 4 3 2 3 4 4 2 2 3 3
6 4 3 2 3 8 4 8 7 11 7 8 8 10 9 9 7 5 3 3 3 5 5 4 3 3 2 1 1 2 4 3 3 3 4 5 5 4 3 1 4 4 3 5 2 2 2 2 4
4 7 5 5 7 9 12 3 2 4 5 7 9 5 8 7 6 5 0 1 2 4 5 4 2 2 2 3 3 4 4 3 3 2 4 2 4 4 5 6 4 2 3 3 4 5 3 0 2
4 2 4 8 5 4 2 4 3 1 6 7 7 8 7 7 6 5 3 2 4 4 3 4 4 3 2 1 3 3 1 2 1 2 3 4 4 3 6 3 3 4 4 4 3 4 3 2 2
2 0 3 3 5 4 2 3 2 2 4 5 7 7 7 7 6 6 6 4 4 2 4 4 5 5 5 3 1 2 4 3 2 2 4 4 4 5 4 4 6 4 3 2 5 5 5 3 3
0 4 6 4 4 2 6 6 4 3 4 2 4 6 7 8 8 7 5 3 3 3 3 5 6 5 5 5 3 3 5 5 4 3 3 3 2 3 4 6 4 3 3 4 4 4 5 4 4
5 4 3 1 1 6 3 4 4 1 2 3 0 6 7 7 7 8 3 4 5 4 3 3 5 5 5 5 6 4 2 3 4 3 2 3 2 2 3 3 3 2 3 4 4 4 4 4 3
2 4 4 7 5 3 2 5 3 3 5 1 2 2 6 8 7 9 6 5 4 4 3 4 4 4 5 5 6 5 5 3 3 2 3 3 2 2 3 3 3 4 3 4 4 3 3 4 3
3 2 1 1 2 3 4 4 2 5 5 5 6 7 7 7 8 8 7 4 4 3 1 3 4 3 4 4 4 5 4 5 3 3 3 3 2 2 3 4 3 4 4 4 4 2 3 3 3
1 2 2 0 4 4 1 3 4 1 2 4 5 4 7 7 7 7 6 6 3 2 2 2 3 3 0 3 3 3 3 3 3 3 3 2 2 2 3 2 3 3 4 4 3 3 3 3 2
4 2 3 1 1 4 4 5 5 6 3 3 4 6 4 3 5 6 5 4 5 4 3 1 2 2 1 0 1 2 2 3 2 1 0 0 1 2 2 2 2 2 3 3 3 3 3 3 3
2 1 1 3 5 2 3 4 1 5 5 2 3 4 2 2 3 4 5 6 5 4 3 3 3 1 3 2 2 2 2 2 2 1 2 2 2 1 1 1 2 2 3 3 3 3 3 3 3
Wind_Direction
14 12 54 49 102 71 238 245 216 266 195 208 99 244 165 54 141 187 207 116 133 39 322 299 285 221 170 147 139 132 129 128 123 116 109 105 105 118 121 118 113 108 103 104 105 106 103 96 85
37 105 40 93 129 202 230 227 235 230 229 127 113 103 345 122 139 133 126 217 73 43 285 262 234 182 166 150 140 138 136 133 126 119 113 105 100 107 134 124 118 112 110 104 102 106 104 92 73
71 153 104 154 195 199 210 202 225 244 193 216 101 46 94 148 55 129 111 145 99 60 39 24 150 154 154 143 146 146 143 133 129 121 112 107 108 96 134 130 121 118 114 109 102 103 102 87 71
138 106 3 188 216 239 216 222 234 263 210 203 140 146 50 7 157 145 137 132 82 50 56 57 48 155 139 132 150 146 135 129 121 117 113 103 105 94 129 135 124 125 122 117 109 105 102 90 72
42 83 231 223 220 240 236 275 295 278 254 190 173 178 135 346 103 111 121 106 99 70 41 64 63 60 92 114 146 142 135 128 126 121 114 102 88 90 100 121 129 131 129 126 121 115 108 94 76
90 115 194 229 205 206 261 220 247 250 255 247 99 112 142 226 118 104 88 83 73 83 56 48 64 65 68 71 69 73 81 104 112 107 102 95 86 76 70 80 114 135 136 135 130 123 113 100 84
153 137 216 210 239 234 194 272 190 252 255 251 150 136 298 224 128 118 99 69 53 60 72 52 54 65 59 67 66 62 66 64 73 86 93 94 84 77 71 65 64 68 127 138 136 134 127 104 86
133 122 226 197 189 248 208 232 268 185 240 109 349 178 185 197 134 97 88 82 66 51 61 47 43 63 70 45 58 56 52 54 52 58 88 91 94 84 58 56 55 55 52 49 144 145 137 120 80
117 160 222 203 181 227 192 200 154 30 104 35 10 350 93 125 123 107 112 94 85 53 37 47 38 46 67 72 66 49 42 37 33 25 50 69 64 90 82 68 48 41 44 27 350 170 143 136 20
162 184 215 203 192 218 259 211 178 129 129 53 42 20 107 128 140 139 142 133 106 74 56 51 31 34 55 69 69 67 41 19 15 14 11 13 56 59 88 73 68 54 58 54 49 68 134 107 316
190 211 209 251 233 201 213 203 178 138 219 179 193 159 131 123 119 119 111 118 112 98 65 60 49 5 51 91 91 129 67 32 17 6 10 6 11 26 61 68 54 31 31 28 41 42 40 33 281
202 210 206 220 272 201 210 319 106 55 360 313 149 150 130 147 145 136 138 121 120 102 84 78 83 78 25 21 39 67 76 46 65 350 7 17 16 3 37 59 56 60 38 40 26 30 27 36 33
226 242 206 239 208 224 181 142 123 83 50 67 114 118 126 129 127 123 112 110 111 101 103 92 90 95 74 51 43 69 46 73 71 46 12 7 3 23 2 49 46 42 27 44 39 28 47 29 20
231 214 237 193 197 176 151 168 132 130 123 100 109 118 124 139 140 100 106 108 102 110 100 89 92 94 109 81 71 76 64 51 66 50 26 34 358 353 12 36 55 49 19 8 15 26 18 72 19
242 197 228 204 190 194 147 205 90 140 127 108 110 119 123 131 118 123 119 114 112 103 110 103 89 71 90 115 122 112 97 41 57 75 28 29 20 355 344 25 20 32 9 10 5 17 352 41 74
176 96 176 247 153 226 144 231 51 20 140 129 121 121 121 108 118 109 112 111 102 109 118 115 114 101 91 88 86 98 101 89 267 73 40 47 35 1 357 13 20 3 358 21 8 354 58 346 27
348 196 179 275 210 132 130 111 5 360 99 92 106 121 122 113 108 109 115 119 124 119 109 104 111 119 116 109 116 97 99 93 16 71 59 51 13 282 207 46 3 21 351 7 5 356 36 336 348
208 194 194 189 204 95 92 73 34 30 74 63 50 41 45 106 120 126 116 112 111 110 111 113 105 116 114 103 83 76 96 110 100 47 74 103 33 5 2 52 10 52 255 5 29 14 321 55 346
154 175 180 235 133 83 96 80 31 24 47 44 40 39 35 37 53 64 94 103 102 97 106 116 125 138 122 121 127 133 97 84 104 86 67 52 37 50 1 23 359 59 37 49 359 304 330 352 353
225 227 180 111 25 95 96 78 55 36 43 45 34 36 29 31 41 51 68 91 110 132 115 105 126 137 169 168 165 130 140 83 82 68 49 59 39 6 92 59 30 25 41 41 11 43 357 349 343
181 193 191 153 104 59 122 63 60 61 48 44 43 35 36 24 9 2 100 242 144 144 143 132 97 75 88 106 86 64 82 110 121 128 87 63 84 12 55 44 49 54 73 34 16 33 14 210 7
198 248 168 148 128 179 130 220 215 89 45 30 17 26 16 7 354 340 352 264 206 192 157 132 120 78 45 41 110 132 154 129 131 138 134 121 83 91 68 73 51 39 49 38 17 35 32 3 26
175 237 131 81 92 100 240 101 290 178 3 356 344 11 16 356 344 328 312 241 216 195 149 122 91 57 28 3 220 175 128 114 102 103 104 87 61 55 46 51 51 29 48 29 51 37 30 31 31
202 84 50 57 89 25 213 144 220 190 191 346 347 356 4 351 340 330 318 143 114 83 75 106 98 57 30 57 57 111 132 134 126 116 101 89 67 55 38 51 56 43 35 24 41 50 51 45 50
54 76 40 82 192 215 315 95 233 190 139 127 5 349 352 347 348 348 6 93 95 95 87 86 91 57 30 51 71 54 90 98 130 123 107 100 67 38 42 57 47 37 31 31 29 47 49 39 62
73 154 165 182 192 201 20 173 158 116 86 66 61 69 9 359 19 12 46 69 72 79 74 79 81 71 47 43 41 63 69 61 58 72 93 97 84 69 30 50 55 50 40 38 28 43 53 60 51
271 210 337 50 166 99 110 72 76 111 82 43 28 43 13 17 22 23 24 51 45 46 59 122 98 58 45 46 45 42 61 82 80 69 85 101 95 131 56 39 34 36 39 36 30 31 49 51 37
84 194 112 290 207 198 19 223 210 119 90 49 18 31 38 10 27 33 23 25 26 53 358 80 106 128 39 26 35 37 25 58 74 66 73 90 75 59 62 41 40 28 35 32 35 32 32 49 14
354 33 17 111 287 166 147 256 213 172 122 56 13 58 38 23 20 22 45 34 16 19 26 72 106 140 167 343 342 20 356 11 24 79 88 6 43 40 34 23 15 27 34 30 39 18 46 57 21
136 130 111 121 285 31 117 259 217 129 118 106 32 10 350 65 17 20 32 42 44 48 14 337 325 301 242 224 200 239 281 320 322 285 230 208 210 237 245 327 349 357 5 22 28 21 10 19 13